Le Luc, France

2:52 PM CEST on July 27, 2017 (GMT +0200)
Le Cannet Army

Weather History for LFMC - March, 2014

Change the Weather History Date:

Friday, March 28, 2014

  Actual Average Record
Temperature  
Mean Temperature 50 °F -  
Max Temperature 66 °F 62 °F - ()
Min Temperature 33 °F 47 °F - ()
Degree Days  
Heating Degree Days 16    
Moisture  
Dew Point 33 °F    
Average Humidity 56    
Maximum Humidity 93    
Minimum Humidity 14    
Precipitation  
Precipitation 0.00 in - - ()
Sea Level Pressure  
Sea Level Pressure 29.98 in    
Wind  
Wind Speed 2 mph ()    
Max Wind Speed 13 mph    
Max Gust Speed -    
Visibility 7.3 miles    
Events      
T = Trace of Precipitation, MM = Missing Value Source: Averaged Metar Reports

Daily Weather History Graph

Daily Weather History Graph

Search for Another Location

Airport or City:

Trip Planner

Search our weather history database for the weather conditions in past years. The results will help you decide how hot, cold, wet, or windy it might be!

Date:

Astronomy

Mar. 28, 2014 Rise Set
Actual Time 6:23 AM CET 6:56 PM CET
Civil Twilight 5:55 AM CET 7:24 PM CET
Nautical Twilight 5:21 AM CET 7:58 PM CET
Astronomical Twilight 4:46 AM CET 8:33 PM CET
Moon 4:48 AM CET (3/28) 4:30 PM CET (3/28)
Length of Visible Light 13h 29m
Length of Day
12h 32m
Waning Crescent, 7% of the Moon is Illuminated
Mar 28
Waning Crescent
Mar 30
New
Apr 7
First Quarter
Apr 15
Full
Apr 22
Last Quarter

Hourly Weather History & Observations

Time (CET) Temp. Windchill Dew Point Humidity Pressure Visibility Wind Dir Wind Speed Gust Speed Precip Events Conditions
12:00 AM 42 °F - 34 °F 63% 29.88 in 25 mi North 2.3 mph - -   Clear
12:00 AM 41.0 °F - 33.8 °F 76% 29.86 in 6.2 mi Variable 2.3 mph - N/A   Unknown
12:30 AM 39.2 °F - 33.8 °F 81% 29.86 in 6.2 mi Calm Calm - N/A   Unknown
1:00 AM 41 °F - 34 °F 69% 29.89 in 25 mi Calm Calm - -   Clear
1:00 AM 41.0 °F - 33.8 °F 76% 29.86 in 6.2 mi Calm Calm - N/A   Unknown
1:30 AM 39.2 °F - 33.8 °F 81% 29.89 in 6.2 mi Variable 2.3 mph - N/A   Unknown
2:00 AM 37 °F - 33 °F 79% 29.91 in 25 mi ESE 2.3 mph - -   Clear
2:00 AM 37.4 °F - 32.0 °F 81% 29.89 in 6.2 mi Variable 2.3 mph - N/A   Unknown
2:30 AM 37.4 °F 34.9 °F 32.0 °F 81% 29.89 in 6.2 mi NW 3.5 mph - N/A   Unknown
3:00 AM 37 °F - 32 °F 77% 29.91 in 12 mi SSE 2.3 mph - -   Clear
3:00 AM 37.4 °F - 32.0 °F 81% 29.89 in 6.2 mi Variable 2.3 mph - N/A   Unknown
3:30 AM 37.4 °F - 32.0 °F 81% 29.89 in 6.2 mi Calm Calm - N/A   Unknown
4:00 AM 35 °F - 32 °F 84% 29.92 in 12 mi Calm Calm - -   Clear
4:00 AM 35.6 °F - 32.0 °F 87% 29.89 in 6.2 mi Calm Calm - N/A   Unknown
4:30 AM 35.6 °F - 32.0 °F 87% 29.92 in 6.2 mi Calm Calm - N/A   Unknown
5:00 AM 35 °F - 33 °F 89% 29.94 in 12 mi South 2.3 mph - -   Clear
5:00 AM 35.6 °F - 33.8 °F 93% 29.92 in 6.2 mi South 2.3 mph - N/A   Unknown
5:30 AM 33.8 °F - 32.0 °F 93% 29.92 in 6.2 mi NW 2.3 mph - N/A   Unknown
6:00 AM 34 °F - 32 °F 87% 29.95 in 11 mi NW 1.2 mph - -   Clear
6:00 AM 33.8 °F - 32.0 °F 93% 29.92 in 6.2 mi NW 1.2 mph - N/A   Unknown
6:30 AM 33.8 °F - 32.0 °F 93% 29.92 in 6.2 mi Calm Calm - N/A   Unknown
7:00 AM 35 °F - 32 °F 83% 29.97 in 6 mi Calm Calm - -   Scattered Clouds
7:00 AM 33.8 °F - 32.0 °F 93% 29.95 in - Calm Calm - N/A   Clear
8:00 AM 41 °F - 35 °F 71% 29.98 in 19 mi Calm Calm - -   Clear
8:00 AM 41.0 °F - 33.8 °F 76% 29.95 in - Calm Calm - N/A   Clear
9:00 AM 49 °F - 38 °F 56% 30.00 in 19 mi SE 1.2 mph - -   Clear
9:00 AM 48.2 °F - 37.4 °F 66% 29.98 in - Variable 1.2 mph - N/A   Clear
10:00 AM 55.4 °F - 37.4 °F 51% 29.98 in 6.2 mi Variable 1.2 mph - N/A   Scattered Clouds
11:00 AM 60 °F - 33 °F 25% 30.00 in 31 mi North 2.3 mph - -   Scattered Clouds
11:00 AM 59.0 °F - 33.8 °F 39% 29.98 in 6.2 mi Variable 2.3 mph - N/A   Partly Cloudy
12:00 PM 63 °F - 36 °F 25% 30.00 in 31 mi ESE 3.5 mph - -   Scattered Clouds
12:00 PM 62.6 °F - 35.6 °F 37% 29.98 in 6.2 mi Variable 3.5 mph - N/A   Partly Cloudy
1:00 PM 65 °F - 33 °F 19% 30.00 in 31 mi South 8.1 mph - -   Scattered Clouds
1:00 PM 64.4 °F - 32.0 °F 30% 30.01 in 6.2 mi South 6.9 mph - N/A   Partly Cloudy
2:00 PM 66 °F - 34 °F 19% 30.00 in 22 mi SSE 12.7 mph - -   Clear
2:00 PM 66.2 °F - 33.8 °F 30% 29.98 in 6.2 mi SSE 12.7 mph - N/A   Unknown
2:30 PM 66.2 °F - 28.4 °F 24% 29.98 in 6.2 mi South 10.4 mph - N/A   Unknown
3:00 PM 66 °F - 29 °F 15% 29.99 in 22 mi South 9.2 mph - -   Clear
3:00 PM 66.2 °F - 30.2 °F 26% 29.98 in 6.2 mi South 9.2 mph - N/A   Unknown
3:30 PM 66.2 °F - 28.4 °F 24% 29.98 in 6.2 mi South 8.1 mph - N/A   Unknown
4:00 PM 66 °F - 31 °F 16% 29.99 in 28 mi South 8.1 mph - -   Clear
4:00 PM 66.2 °F - 30.2 °F 26% 29.98 in 6.2 mi South 8.1 mph - N/A   Unknown
4:30 PM 66.2 °F - 32.0 °F 28% 29.98 in 6.2 mi South 9.2 mph - N/A   Unknown
5:00 PM 65 °F - 28 °F 14% 30.00 in 28 mi South 8.1 mph - -   Clear
5:00 PM 64.4 °F - 28.4 °F 26% 29.98 in 6.2 mi South 8.1 mph - N/A   Unknown
5:30 PM 64.4 °F - 26.6 °F 24% 29.98 in 6.2 mi South 8.1 mph - N/A   Unknown
6:00 PM 63 °F - 28 °F 16% 30.01 in 28 mi SSE 5.8 mph - -   Clear
6:00 PM 62.6 °F - 28.4 °F 27% 30.01 in 6.2 mi SSE 5.8 mph - N/A   Unknown
6:30 PM 60.8 °F - 30.2 °F 31% 30.01 in 6.2 mi SSE 4.6 mph - N/A   Unknown
7:00 PM 58 °F - 30 °F 22% 30.03 in 31 mi SSE 2.3 mph - -   Clear
7:00 PM 57.2 °F - 30.2 °F 36% 30.01 in 6.2 mi Variable 2.3 mph - N/A   Unknown
7:30 PM 53.6 °F - 32.0 °F 44% 30.04 in 6.2 mi Calm Calm - N/A   Unknown
8:00 PM 52 °F - 32 °F 34% 30.05 in 31 mi NNE 1.2 mph - -   Clear
8:00 PM 51.8 °F - 32.0 °F 47% 30.04 in 6.2 mi Variable 1.2 mph - N/A   Unknown
8:30 PM 50.0 °F - 35.6 °F 58% 30.04 in 6.2 mi NW 2.3 mph - N/A   Unknown
9:00 PM 47 °F - 35 °F 51% 30.08 in 31 mi Calm Calm - -   Clear
9:00 PM 46.4 °F - 35.6 °F 66% 30.06 in 6.2 mi Calm Calm - N/A   Unknown
9:30 PM 44.6 °F - 35.6 °F 71% 30.06 in 6.2 mi Calm Calm - N/A   Unknown
10:00 PM 44 °F - 36 °F 64% 30.10 in 31 mi NW 1.2 mph - -   Clear
10:00 PM 44.6 °F - 35.6 °F 71% 30.06 in 6.2 mi Variable 1.2 mph - N/A   Unknown
10:30 PM 42.8 °F - 35.6 °F 76% 30.09 in 6.2 mi Calm Calm - N/A   Unknown
11:00 PM 42 °F - 35 °F 69% 30.11 in 25 mi Calm Calm - -   Clear
11:00 PM 42.8 °F - 35.6 °F 76% 30.09 in 6.2 mi Calm Calm - N/A   Unknown
11:30 PM 41.0 °F - 35.6 °F 81% 30.09 in 6.2 mi Calm Calm - N/A   Unknown